FW3933 Weather Reports


Display with metric or nautical units.
time (UTC)temp
F
wind
direction
speed
MPH
gust
MPH
rain 1hr
in
rain 24hr
in
rain mn
in
humidity
%
barometer
mb
20260505050117 50 289 4.0 14.0 0.07 0.13 0.13 91 1020.5
20260505041549 52 295 4.0 13.0 0.00 0.06 0.06 87 1020.4
20260505041036 52 244 3.0 10.0 0.00 0.06 0.06 87 1020.6
20260505040048 52 230 3.0 13.0 0.00 0.06 0.06 86 1020.2
20260505035537 52 309 2.0 12.0 0.00 0.06 0.06 86 1020.1
20260505035036 52 299 1.0 12.0 0.00 0.06 0.06 85 1020.0
20260505034537 52 205 3.0 12.0 0.00 0.06 0.06 85 1020.1
20260505034036 52 303 4.0 12.0 0.00 0.06 0.06 86 1020.1
20260505033536 52 240 2.0 13.0 0.00 0.06 0.06 87 1020.1
20260505033041 52 258 1.0 12.0 0.00 0.06 0.06 88 1020.0
20260505032536 52 221 1.0 12.0 0.00 0.06 0.06 87 1019.9
20260505032035 52 197 4.0 13.0 0.00 0.06 0.06 87 1019.8
20260505031544 52 208 4.0 17.0 0.00 0.06 0.06 86 1019.8
20260505031036 52 176 8.0 17.0 0.00 0.06 0.06 86 1019.7
20260505030040 52 201 2.0 15.0 0.00 0.06 0.06 86 1019.7
20260505025536 52 167 4.0 15.0 0.00 0.06 0.06 86 1019.5
20260505025036 52 151 6.0 14.0 0.00 0.06 0.06 86 1019.5
20260505024536 52 192 3.0 13.0 0.00 0.06 0.06 86 1019.6
20260505024036 52 185 0.0 23.0 0.00 0.06 0.06 86 1019.5
20260505023537 52 188 9.0 23.0 0.00 0.06 0.06 85 1018.7
20260505023042 52 201 8.0 17.0 0.00 0.06 0.06 84 1019.2
20260505022535 52 201 7.0 16.0 0.00 0.06 0.06 84 1019.5
20260505022034 52 225 6.0 16.0 0.00 0.06 0.06 84 1019.6
20260505021539 52 181 7.0 16.0 0.00 0.06 0.06 84 1019.7
20260505021035 52 213 5.0 16.0 0.00 0.06 0.06 84 1019.7
20260505020036 52 174 7.0 15.0 0.00 0.06 0.06 86 1019.9
20260505015533 52 208 6.0 15.0 0.00 0.06 0.06 86 1019.8
20260505015033 52 249 5.0 13.0 0.00 0.06 0.06 86 1019.8
20260505014540 52 237 3.0 12.0 0.00 0.06 0.06 85 1019.9
20260505014033 52 229 7.0 12.0 0.00 0.06 0.06 84 1019.9
20260505013532 52 181 6.0 15.0 0.00 0.06 0.06 85 1019.9
20260505013034 53 199 6.0 14.0 0.00 0.06 0.06 84 1019.8
20260505012532 53 221 4.0 13.0 0.00 0.06 0.06 84 1019.9
20260505012032 53 227 6.0 13.0 0.00 0.06 0.06 83 1019.8
20260505011533 53 238 5.0 13.0 0.00 0.06 0.06 82 1019.7
20260505011033 53 187 5.0 11.0 0.00 0.06 0.06 83 1019.7
20260505010034 53 198 6.0 12.0 0.00 0.06 0.06 82 1020.0
20260505005533 53 196 5.0 12.0 0.00 0.06 0.06 82 1020.1
20260505005033 53 205 5.0 13.0 0.00 0.06 0.06 82 1020.0
20260505004538 53 200 5.0 13.0 0.00 0.06 0.06 83 1019.8
20260505004033 53 191 6.0 13.0 0.00 0.06 0.06 83 1019.8
20260505003532 54 200 6.0 12.0 0.00 0.06 0.06 83 1019.8
20260505003032 54 225 3.0 12.0 0.00 0.06 0.06 82 1019.8
20260505002535 54 221 5.0 12.0 0.00 0.06 0.06 82 1019.8
20260505002032 54 216 3.0 13.0 0.00 0.06 0.06 82 1019.8
20260505001532 54 183 3.0 11.0 0.00 0.06 0.06 84 1019.6
20260505001031 54 198 3.0 11.0 0.00 0.06 0.06 82 1019.6
20260505000039 54 221 5.0 13.0 0.00 0.06 0.06 79 1019.7
20260504235532 54 201 6.0 16.0 0.00 0.06 0.06 79 1019.7
20260504235032 54 170 5.0 16.0 0.00 0.06 0.06 80 1019.7
20260504234533 54 170 5.0 12.0 0.00 0.06 0.06 79 1019.8
20260504234031 54 174 5.0 14.0 0.00 0.06 0.06 80 1019.9
20260504233531 54 208 4.0 14.0 0.00 0.06 0.06 79 1020.0
20260504233032 54 178 5.0 11.0 0.00 0.06 0.06 79 1019.9
20260504232531 54 183 4.0 11.0 0.00 0.06 0.06 79 1020.0
20260504232032 54 180 5.0 11.0 0.00 0.06 0.06 79 1019.9
20260504231531 54 258 3.0 12.0 0.00 0.06 0.06 79 1019.9
20260504231031 54 189 2.0 16.0 0.00 0.06 0.06 80 1020.0
20260504230031 54 179 7.0 13.0 0.00 0.06 0.06 77 1020.1
20260504225532 55 213 3.0 10.0 0.00 0.06 0.06 77 1020.1
20260504225032 55 219 4.0 9.0 0.00 0.06 0.06 76 1020.2
20260504224530 55 197 2.0 7.0 0.00 0.06 0.06 77 1020.2
20260504224030 55 173 3.0 8.0 0.00 0.06 0.06 78 1020.1
20260504223530 56 184 3.0 8.0 0.00 0.06 0.06 77 1020.1
20260504223029 55 195 1.0 7.0 0.00 0.06 0.06 80 1020.2
20260504222529 55 269 0.0 6.0 0.00 0.06 0.06 83 1020.2
20260504222029 55 219 0.0 5.0 0.00 0.06 0.06 85 1020.3
20260504221532 54 199 0.0 5.0 0.00 0.06 0.06 86 1020.4
20260504221028 54 208 0.0 4.0 0.00 0.06 0.06 87 1020.4
20260504220028 54 230 2.0 7.0 0.00 0.06 0.06 87 1020.5
20260504215528 53 202 0.0 5.0 0.00 0.06 0.06 88 1020.4
20260504215028 53 250 0.0 6.0 0.01 0.06 0.06 89 1020.6
20260504214527 53 223 0.0 6.0 0.01 0.06 0.06 88 1020.6
20260504214027 53 275 0.0 8.0 0.01 0.06 0.06 89 1020.7
20260504213527 53 191 0.0 8.0 0.01 0.06 0.06 90 1020.7
20260504213045 53 241 0.0 5.0 0.03 0.06 0.06 90 1020.7
20260504212528 52 242 0.0 5.0 0.03 0.06 0.06 90 1020.7
20260504212027 52 220 0.0 5.0 0.03 0.06 0.06 90 1020.6
20260504211526 52 247 0.0 4.0 0.03 0.06 0.06 90 1020.6
20260504211026 52 276 0.0 6.0 0.05 0.06 0.06 91 1020.7
20260504210057 52 240 0.0 1.0 0.05 0.06 0.06 90 1020.7
20260504205559 51 259 0.0 5.0 0.05 0.06 0.06 90 1020.6
20260504205057 51 294 0.0 5.0 0.05 0.06 0.06 90 1020.7
20260504204558 51 296 0.0 4.0 0.05 0.05 0.05 90 1020.6
20260504204056 51 274 0.0 2.0 0.05 0.05 0.05 90 1020.7
20260504203559 51 299 0.0 3.0 0.05 0.05 0.05 89 1020.7
20260504203117 51 306 0.0 4.0 0.04 0.04 0.04 89 1020.8
20260504202558 51 287 1.0 5.0 0.03 0.03 0.03 88 1021.1
20260504202056 51 306 1.0 7.0 0.03 0.03 0.03 88 1021.0
20260504201555 51 330 2.0 8.0 0.03 0.03 0.03 88 1021.0
20260504201057 51 292 3.0 8.0 0.03 0.03 0.03 88 1020.8
20260504200025 51 335 2.0 8.0 0.01 0.01 0.01 88 1020.7
20260504195524 51 300 3.0 8.0 0.01 0.01 0.01 87 1020.7
20260504195025 51 285 1.0 10.0 0.01 0.01 0.01 87 1020.7
20260504194524 51 296 3.0 10.0 0.00 0.00 0.00 86 1021.0
20260504194024 51 294 3.0 9.0 0.00 0.00 0.00 86 1020.9
20260504193524 52 321 3.0 9.0 0.00 0.00 0.00 86 1020.8
20260504193024 52 326 1.0 10.0 0.00 0.00 0.00 86 1020.7
20260504192523 52 294 5.0 10.0 0.00 0.00 0.00 84 1020.7
20260504192023 53 303 3.0 11.0 0.00 0.00 0.00 84 1020.7
20260504191523 53 307 4.0 11.0 0.00 0.00 0.00 83 1020.6
20260504191023 53 307 2.0 10.0 0.00 0.00 0.00 83 1020.6
20260504190021 54 305 4.0 8.0 0.00 0.00 0.00 81 1020.5
20260504185524 54 277 3.0 8.0 0.00 0.00 0.00 80 1020.6
20260504185021 54 309 1.0 9.0 0.00 0.00 0.00 80 1020.6
20260504184521 55 323 2.0 9.0 0.00 0.00 0.00 80 1020.7
20260504184020 55 296 1.0 10.0 0.00 0.00 0.00 79 1020.8
20260504183521 55 339 2.0 10.0 0.00 0.00 0.00 80 1020.8
20260504183023 54 259 1.0 9.0 0.00 0.00 0.00 79 1020.6
20260504182523 54 274 3.0 10.0 0.00 0.00 0.00 80 1020.8
20260504182020 54 311 2.0 10.0 0.00 0.00 0.00 79 1020.8
20260504181518 54 289 1.0 10.0 0.00 0.00 0.00 80 1020.8
20260504181018 54 310 4.0 10.0 0.00 0.00 0.00 79 1020.8
20260504180019 54 296 3.0 8.0 0.00 0.00 0.00 79 1020.6
20260504175517 54 238 0.0 6.0 0.00 0.00 0.00 81 1020.5
20260504175021 54 257 1.0 8.0 0.00 0.00 0.00 80 1020.5
20260504174518 54 304 1.0 8.0 0.00 0.00 0.00 79 1020.5
20260504174020 54 314 0.0 8.0 0.00 0.00 0.00 79 1020.5
20260504173518 54 251 0.0 8.0 0.00 0.00 0.00 79 1020.5
20260504173031 54 272 0.0 7.0 0.00 0.00 0.00 80 1020.5
20260504172517 54 251 0.0 5.0 0.00 0.00 0.00 80 1020.5
20260504172016 53 231 1.0 6.0 0.00 0.00 0.00 81 1020.5
20260504171522 53 242 1.0 6.0 0.00 0.00 0.00 80 1020.6
20260504171015 53 223 1.0 7.0 0.00 0.00 0.00 80 1020.5
20260504151008 50 209 0.0 5.0 0.00 0.00 0.00 86 1020.2
20260504141002 49 211 4.0 11.0 0.00 0.00 0.00 89 1019.7
20260504140110 49 217 6.0 12.0 0.00 0.00 0.00 89 1019.7
20260504081533 50 283 3.0 10.0 0.00 0.00 0.00 90 1019.3
20260504081033 50 211 2.0 12.0 0.00 0.00 0.00 90 1019.3